Location: Avully
(45.9633°N, 6.0228°E)
Time: 02:46:19
(UTC+00:00)

Cosmos 1953 - Pass Details

Date: 23 May 2024
Orbit: 510 x 531 km, 82.5° (Epoch: 21 June)

Event Time Altitude Azimuth Distance (km) Brightness Sun altitude
Rises 00:59:53 0° 350° (N) 2,684 6.8 -20.5°
Reaches altitude 10° 01:02:03 10° 351° (N) 1,786 5.7 -20.4°
Maximum altitude 01:05:58 88° 270° (W) 534 2.1 -20.1°
Enters shadow 01:06:38 60° 176° (S) 606 2.2 -20.1°
